This is the latest recevied weather packets stored in our database for station/object W1ERB-13. If no packets are shown the sender has not sent any weather packets the latest 10 day(s).
| Time | Temp. | Humidity | Pressure | Rain* | Wind** | Luminosity | Snow |
|---|---|---|---|---|---|---|---|
| 1777845862 | 12.22° C | 33% | 1008.9 hPa | 0 mm | - | 39 W/m² | - |
| 1777845560 | 12.22° C | 34% | 1009 hPa | 0 mm | - | 42 W/m² | - |
| 1777845256 | 12.78° C | 34% | 1009.1 hPa | 0 mm | - | 42 W/m² | - |
| 1777844954 | 12.78° C | 34% | 1009 hPa | 0 mm | - | 67 W/m² | - |
| 1777844651 | 12.78° C | 34% | 1009.1 hPa | 0 mm | - | 48 W/m² | - |
| 1777844349 | 12.22° C | 34% | 1009.2 hPa | 0 mm | - | 48 W/m² | - |
| 1777844046 | 12.22° C | 34% | 1009.1 hPa | 0 mm | - | 51 W/m² | - |
| 1777843743 | 12.22° C | 34% | 1008.9 hPa | 0 mm | - | 61 W/m² | - |
| 1777843441 | 12.22° C | 34% | 1008.9 hPa | 0 mm | - | 50 W/m² | - |
| 1777843137 | 12.22° C | 36% | 1009 hPa | 0 mm | - | 59 W/m² | - |
| 1777842834 | 12.22° C | 35% | 1009.3 hPa | 0 mm | - | 77 W/m² | - |
| 1777842529 | 12.22° C | 34% | 1009.3 hPa | 0 mm | - | 110 W/m² | - |
| 1777842227 | 11.67° C | 35% | 1009 hPa | 0 mm | - | 69 W/m² | - |
| 1777841922 | 12.22° C | 35% | 1009 hPa | 0 mm | - | 106 W/m² | - |
| 1777841619 | 12.78° C | 35% | 1008.7 hPa | 0 mm | - | 160 W/m² | - |
| 1777841315 | 13.33° C | 35% | 1008.7 hPa | 0 mm | - | 84 W/m² | - |
| 1777841013 | 12.78° C | 35% | 1008.9 hPa | 0 mm | - | 423 W/m² | - |
| 1777840710 | 13.33° C | 35% | 1008.7 hPa | 0 mm | - | 449 W/m² | - |
| 1777840407 | 13.89° C | 34% | 1008.8 hPa | 0 mm | - | 475 W/m² | - |
| 1777840104 | 13.33° C | 34% | 1009 hPa | 0 mm | - | 486 W/m² | - |
| 1777839802 | 13.89° C | 33% | 1009.1 hPa | 0 mm | - | 505 W/m² | - |
| 1777839500 | 13.33° C | 34% | 1009 hPa | 0 mm | - | 413 W/m² | - |
| 1777839196 | 12.78° C | 34% | 1008.6 hPa | 0 mm | - | 593 W/m² | - |
| 1777838894 | 12.22° C | 37% | 1008.9 hPa | 0 mm | - | 628 W/m² | - |
| 1777838590 | 11.67° C | 35% | 1009 hPa | 0 mm | - | 581 W/m² | - |
* Rain latest hour (hover to see other rain measurements)
** Current wind speed in m/s (hover to see current wind gust speed)